| time (UTC) | temp F | wind direction | speed MPH | gust MPH | rain 1hr in | rain 24hr in | rain mn in | humidity % | barometer mb |
| 20260506211521 | 57 | 304 | 10.0 | 21.0 | 0.00 | 0.00 | 0.00 | 38 | 1015.8 |
| 20260506210020 | 57 | 304 | 11.0 | 22.0 | 0.00 | 0.00 | 0.00 | 38 | 1015.7 |
| 20260506204513 | 57 | 360 | 12.0 | 23.0 | 0.00 | 0.00 | 0.00 | 36 | 1015.7 |
| 20260506203009 | 58 | 360 | 11.0 | 21.0 | 0.00 | 0.00 | 0.00 | 37 | 1015.8 |
| 20260506201504 | 58 | 360 | 13.0 | 22.0 | 0.00 | 0.00 | 0.00 | 37 | 1015.9 |
| 20260506194601 | 57 | 306 | 13.0 | 26.0 | 0.00 | 0.00 | 0.00 | 35 | 1016.3 |
| 20260506193051 | 57 | 360 | 13.0 | 24.0 | 0.00 | 0.00 | 0.00 | 35 | 1016.3 |
| 20260506191547 | 58 | 360 | 14.0 | 26.0 | 0.00 | 0.00 | 0.00 | 32 | 1016.4 |
| 20260506190044 | 58 | 360 | 12.0 | 23.0 | 0.00 | 0.00 | 0.00 | 32 | 1016.2 |
| 20260506184548 | 56 | 360 | 10.0 | 22.0 | 0.00 | 0.00 | 0.00 | 35 | 1016.1 |
| 20260506183049 | 56 | 254 | 10.0 | 17.0 | 0.00 | 0.00 | 0.00 | 38 | 1016.2 |
| 20260506181539 | 56 | 298 | 12.0 | 20.0 | 0.00 | 0.00 | 0.00 | 38 | 1016.2 |
| 20260506180029 | 56 | 360 | 9.0 | 17.0 | 0.00 | 0.00 | 0.00 | 37 | 1016.2 |
| 20260506174524 | 56 | 360 | 5.0 | 15.0 | 0.00 | 0.00 | 0.00 | 38 | 1016.2 |
| 20260506173016 | 56 | 360 | 10.0 | 17.0 | 0.00 | 0.00 | 0.00 | 38 | 1016.4 |
| 20260506171512 | 56 | 309 | 9.0 | 17.0 | 0.00 | 0.00 | 0.00 | 37 | 1016.4 |
| 20260506170008 | 55 | 360 | 9.0 | 17.0 | 0.00 | 0.00 | 0.00 | 38 | 1016.3 |
| 20260506164507 | 56 | 360 | 7.0 | 16.0 | 0.00 | 0.00 | 0.00 | 37 | 1016.4 |
| 20260506163105 | 56 | 360 | 10.0 | 17.0 | 0.00 | 0.00 | 0.00 | 37 | 1016.4 |
| 20260506161555 | 55 | 360 | 6.0 | 16.0 | 0.00 | 0.00 | 0.00 | 39 | 1016.3 |
| 20260506160054 | 56 | 360 | 4.0 | 14.0 | 0.00 | 0.00 | 0.00 | 40 | 1016.3 |
| 20260506154546 | 55 | 360 | 4.0 | 13.0 | 0.00 | 0.00 | 0.00 | 40 | 1016.4 |
| 20260506153104 | 54 | 360 | 3.0 | 11.0 | 0.00 | 0.00 | 0.00 | 41 | 1016.4 |
| 20260506151542 | 53 | 360 | 8.0 | 14.0 | 0.00 | 0.00 | 0.00 | 41 | 1016.5 |
| 20260506150034 | 54 | 360 | 4.0 | 12.0 | 0.00 | 0.00 | 0.00 | 40 | 1016.6 |
| 20260506144529 | 53 | 313 | 4.0 | 13.0 | 0.00 | 0.00 | 0.00 | 39 | 1016.5 |
| 20260506143026 | 54 | 360 | 3.0 | 8.0 | 0.00 | 0.00 | 0.00 | 39 | 1016.7 |
| 20260506141519 | 53 | 360 | 2.0 | 7.0 | 0.00 | 0.00 | 0.00 | 39 | 1016.6 |
| 20260506140017 | 52 | 360 | 1.0 | 4.0 | 0.00 | 0.00 | 0.00 | 38 | 1016.6 |
| 20260506134511 | 51 | 317 | 0.0 | 0.0 | 0.00 | 0.00 | 0.00 | 32 | 1016.4 |
| 20260506133006 | 50 | 338 | 0.0 | 0.0 | 0.00 | 0.00 | 0.00 | 30 | 1016.0 |
| 20260506131502 | 49 | 360 | 0.0 | 0.0 | 0.00 | 0.00 | 0.00 | 28 | 1015.9 |
| 20260506124554 | 48 | 5 | 0.0 | 0.0 | 0.00 | 0.00 | 0.00 | 25 | 1015.7 |
| 20260506123050 | 47 | 18 | 0.0 | 0.0 | 0.00 | 0.00 | 0.00 | 19 | 1015.4 |
| 20260506121545 | 46 | 18 | 0.0 | 0.0 | 0.00 | 0.00 | 0.00 | 11 | 1015.3 |
| 20260506120042 | 45 | 18 | 0.0 | 0.0 | 0.00 | 0.00 | 0.00 | 5 | 1015.0 |
| 20260506114536 | 44 | 18 | 0.0 | 0.0 | 0.00 | 0.00 | 0.00 | 100 | 1015.0 |
| 20260506113039 | 44 | 18 | 0.0 | 0.0 | 0.00 | 0.00 | 0.00 | 100 | 1014.9 |
| 20260506111531 | 43 | 18 | 0.0 | 0.0 | 0.00 | 0.00 | 0.00 | 100 | 1014.8 |
| 20260506110023 | 43 | 18 | 0.0 | 0.0 | 0.00 | 0.00 | 0.00 | 100 | 1014.7 |
| 20260506104521 | 44 | 25 | 0.0 | 0.0 | 0.00 | 0.00 | 0.00 | 2 | 1014.5 |
| 20260506103015 | 44 | 25 | 0.0 | 0.0 | 0.00 | 0.00 | 0.00 | 12 | 1014.3 |
| 20260506101511 | 44 | 25 | 0.0 | 0.0 | 0.00 | 0.00 | 0.00 | 21 | 1013.9 |
| 20260506100011 | 44 | 25 | 0.0 | 0.0 | 0.00 | 0.00 | 0.00 | 27 | 1013.8 |
| 20260506094506 | 44 | 25 | 0.0 | 0.0 | 0.00 | 0.00 | 0.00 | 32 | 1013.8 |
| 20260506093004 | 45 | 25 | 0.0 | 0.0 | 0.00 | 0.00 | 0.00 | 37 | 1013.7 |
| 20260506091505 | 45 | 42 | 0.0 | 0.0 | 0.00 | 0.00 | 0.00 | 40 | 1013.7 |
| 20260506090107 | 45 | 43 | 0.0 | 0.0 | 0.00 | 0.00 | 0.00 | 44 | 1013.5 |
| 20260506084606 | 45 | 42 | 0.0 | 0.0 | 0.00 | 0.00 | 0.00 | 47 | 1013.7 |
| 20260506083057 | 45 | 43 | 0.0 | 0.0 | 0.00 | 0.00 | 0.00 | 49 | 1013.5 |
| 20260506081554 | 46 | 43 | 0.0 | 0.0 | 0.00 | 0.00 | 0.00 | 50 | 1013.4 |
| 20260506073048 | 47 | 11 | 0.0 | 2.0 | 0.00 | 0.00 | 0.00 | 50 | 1013.2 |
| 20260506071546 | 47 | 13 | 0.0 | 0.0 | 0.00 | 0.00 | 0.00 | 51 | 1013.0 |
| 20260506061543 | 49 | 348 | 0.0 | 3.0 | 0.00 | 0.00 | 0.00 | 50 | 1013.0 |
| 20260506044523 | 52 | 314 | 0.0 | 0.0 | 0.00 | 0.00 | 0.00 | 47 | 1012.3 |
| 20260506043018 | 53 | 311 | 0.0 | 0.0 | 0.00 | 0.00 | 0.00 | 47 | 1012.2 |
| 20260506041512 | 53 | 306 | 0.0 | 0.0 | 0.00 | 0.00 | 0.00 | 48 | 1012.5 |
| 20260506040010 | 53 | 304 | 0.0 | 0.0 | 0.00 | 0.00 | 0.00 | 47 | 1012.6 |
| 20260506034514 | 54 | 302 | 0.0 | 0.0 | 0.00 | 0.00 | 0.00 | 46 | 1012.3 |
| 20260506033100 | 54 | 360 | 0.0 | 0.0 | 0.00 | 0.00 | 0.00 | 47 | 1012.3 |
| 20260506031604 | 54 | 360 | 0.0 | 0.0 | 0.00 | 0.00 | 0.00 | 47 | 1012.1 |
| 20260506030051 | 54 | 360 | 0.0 | 0.0 | 0.00 | 0.00 | 0.00 | 47 | 1011.8 |
| 20260506024606 | 54 | 360 | 0.0 | 0.0 | 0.00 | 0.00 | 0.00 | 46 | 1011.7 |
| 20260506023042 | 54 | 299 | 0.0 | 0.0 | 0.00 | 0.00 | 0.00 | 46 | 1011.8 |
| 20260506021538 | 55 | 299 | 0.0 | 0.0 | 0.00 | 0.00 | 0.00 | 45 | 1011.7 |
| 20260506020033 | 55 | 299 | 0.0 | 0.0 | 0.00 | 0.00 | 0.00 | 45 | 1011.5 |
| 20260506014531 | 55 | 300 | 0.0 | 0.0 | 0.00 | 0.00 | 0.00 | 45 | 1011.1 |
| 20260506013037 | 55 | 299 | 0.0 | 0.0 | 0.00 | 0.00 | 0.00 | 43 | 1011.1 |
| 20260506011520 | 55 | 303 | 0.0 | 0.0 | 0.00 | 0.00 | 0.00 | 44 | 1010.8 |
| 20260506010020 | 56 | 360 | 0.0 | 0.0 | 0.00 | 0.00 | 0.00 | 42 | 1010.8 |
| 20260506004512 | 56 | 360 | 0.0 | 3.0 | 0.00 | 0.00 | 0.00 | 42 | 1010.6 |
| 20260506003008 | 56 | 360 | 0.0 | 2.0 | 0.00 | 0.00 | 0.00 | 41 | 1010.6 |
| 20260506001503 | 56 | 302 | 0.0 | 8.0 | 0.00 | 0.00 | 0.00 | 40 | 1010.2 |
| 20260506000101 | 56 | 360 | 0.0 | 11.0 | 0.00 | 0.00 | 0.00 | 40 | 1010.6 |
| 20260505234556 | 56 | 360 | 3.0 | 10.0 | 0.00 | 0.00 | 0.00 | 38 | 1010.4 |
| 20260505233050 | 57 | 312 | 4.0 | 10.0 | 0.00 | 0.00 | 0.00 | 38 | 1010.4 |
| 20260505231546 | 57 | 308 | 1.0 | 13.0 | 0.00 | 0.00 | 0.00 | 39 | 1010.5 |
| 20260505230054 | 57 | 306 | 3.0 | 11.0 | 0.00 | 0.00 | 0.00 | 37 | 1010.5 |
| 20260505224536 | 57 | 355 | 2.0 | 10.0 | 0.00 | 0.00 | 0.00 | 37 | 1010.6 |
| 20260505223036 | 58 | 319 | 1.0 | 14.0 | 0.00 | 0.00 | 0.00 | 36 | 1010.8 |
| 20260505221533 | 58 | 360 | 6.0 | 16.0 | 0.00 | 0.00 | 0.00 | 37 | 1010.7 |
| 20260505220023 | 58 | 360 | 1.0 | 13.0 | 0.00 | 0.00 | 0.00 | 36 | 1010.6 |
| 20260505214520 | 57 | 360 | 3.0 | 15.0 | 0.00 | 0.00 | 0.00 | 35 | 1010.9 |
| 20260505213014 | 57 | 360 | 9.0 | 15.0 | 0.00 | 0.00 | 0.00 | 34 | 1010.8 |